DW7093 Weather Reports


Display with metric or nautical units.
time (UTC)temp
F
wind
direction
speed
MPH
gust
MPH
rain 1hr
in
rain 24hr
in
rain mn
in
humidity
%
barometer
mb
20260903001552 83 360 0.0 0.0 0.00 0.00 0.00 100 1012.3
20260903000051 84 360 0.0 0.0 0.00 0.00 0.00 100 1012.4
20260902234550 86 360 0.0 2.0 0.00 0.00 0.00 100 1012.4
20260902233050 87 300 0.0 0.0 0.00 0.00 0.00 100 1012.4
20260902231558 89 300 0.0 0.0 0.00 0.00 0.00 100 1012.5
20260902230047 91 220 0.0 5.0 0.00 0.00 0.00 100 1012.5
20260902224546 91 252 0.0 6.0 0.00 0.00 0.00 100 1012.6
20260902223047 91 259 1.0 6.0 0.00 0.00 0.00 100 1012.5
20260902221553 92 248 0.0 2.0 0.00 0.00 0.00 100 1012.5
20260902220045 92 313 0.0 7.0 0.00 0.00 0.00 100 1012.6
20260902214547 92 129 0.0 3.0 0.00 0.00 0.00 100 1012.6
20260902213050 93 109 0.0 8.0 0.00 0.00 0.00 100 1012.7
20260902211547 93 300 0.0 3.0 0.00 0.00 0.00 100 1012.7
20260902210041 93 281 1.0 7.0 0.00 0.00 0.00 100 1012.7
20260902204639 93 284 0.0 4.0 0.00 0.00 0.00 100 1012.8
20260902203045 93 234 1.0 9.0 0.00 0.00 0.00 100 1013.0
20260902201536 93 306 1.0 6.0 0.00 0.00 0.00 100 1013.0
20260902200034 93 219 1.0 6.0 0.00 0.00 0.00 100 1013.2
20260902194535 93 277 2.0 7.0 0.00 0.00 0.00 100 1013.3
20260902193035 93 238 0.0 6.0 0.00 0.00 0.00 100 1013.4
20260902191531 93 236 0.0 7.0 0.00 0.00 0.00 100 1013.5
20260902190030 93 161 1.0 3.0 0.00 0.00 0.00 100 1013.5
20260902184530 92 5 0.0 4.0 0.00 0.00 0.00 100 1013.6
20260902183029 93 146 0.0 6.0 0.00 0.00 0.00 100 1013.5
20260902181526 92 232 0.0 4.0 0.00 0.00 0.00 100 1013.7
20260902180024 92 148 0.0 5.0 0.00 0.00 0.00 100 1013.8
20260902174524 93 97 0.0 3.0 0.00 0.00 0.00 100 1014.1
20260902173021 93 143 0.0 3.0 0.00 0.00 0.00 100 1014.2
20260902171520 92 254 0.0 6.0 0.00 0.00 0.00 100 1014.4
20260902170017 92 294 0.0 2.0 0.00 0.00 0.00 100 1014.5
20260902164514 91 298 0.0 0.0 0.00 0.01 0.00 100 1014.5
20260902163013 90 315 1.0 7.0 0.00 0.01 0.00 100 1014.6
20260902161511 90 190 0.0 4.0 0.00 0.01 0.00 100 1014.8
20260902160015 89 251 1.0 5.0 0.00 0.01 0.00 100 1015.0
20260902154505 88 321 1.0 6.0 0.00 0.01 0.00 100 1015.0
20260902153006 88 281 0.0 4.0 0.00 0.01 0.00 100 1015.0
20260902151501 87 313 1.0 5.0 0.00 0.01 0.00 100 1015.1
20260902150059 87 327 0.0 5.0 0.00 0.01 0.00 100 1015.0
20260902144559 86 268 0.0 3.0 0.00 0.03 0.00 100 1015.1
20260902143056 84 265 1.0 4.0 0.00 0.03 0.00 100 1015.1
20260902141552 83 275 0.0 1.0 0.00 0.03 0.00 100 1015.0
20260902140051 82 276 0.0 5.0 0.00 0.03 0.00 100 1014.9
20260902134545 81 318 0.0 8.0 0.00 0.06 0.00 100 1015.0
20260902133040 79 236 0.0 7.0 0.00 0.06 0.00 100 1015.1
20260902131537 78 265 0.0 2.0 0.00 0.06 0.00 100 1015.2
20260902130034 76 268 1.0 3.0 0.00 0.06 0.00 100 1015.3
20260902124534 74 211 0.0 1.0 0.00 0.08 0.00 100 1015.4
20260902123033 73 253 0.0 2.0 0.00 0.08 0.00 100 1015.4
20260902121532 72 288 0.0 2.0 0.00 0.08 0.00 100 1015.5
20260902120032 71 274 0.0 1.0 0.00 0.08 0.00 100 1015.4
20260902114603 71 274 0.0 1.0 0.00 0.10 0.00 100 1015.3
20260902113029 70 277 0.0 0.0 0.00 0.10 0.00 100 1015.2
20260902111528 70 277 0.0 0.0 0.00 0.10 0.00 100 1015.1
20260902110026 71 277 0.0 0.0 0.00 0.10 0.00 100 1015.1
20260902104525 71 277 0.0 0.0 0.00 0.10 0.00 100 1015.0
20260902103022 72 277 0.0 0.0 0.00 0.10 0.00 100 1014.9
20260902101521 72 277 0.0 0.0 0.00 0.10 0.00 100 1014.7
20260902100021 72 277 0.0 0.0 0.00 0.10 0.00 100 1014.7
20260902094519 72 277 0.0 2.0 0.00 0.10 0.00 100 1014.6
20260902093023 72 275 0.0 0.0 0.00 0.10 0.00 100 1014.5
20260902091518 72 275 0.0 0.0 0.00 0.10 0.00 100 1014.5
20260902090020 72 275 0.0 0.0 0.00 0.10 0.00 100 1014.4
20260902084519 73 275 0.0 2.0 0.00 0.10 0.00 100 1014.4
20260902083019 72 355 0.0 0.0 0.00 0.10 0.00 100 1014.5
20260902081515 73 355 0.0 0.0 0.00 0.10 0.00 100 1014.5
20260902080013 73 355 0.0 0.0 0.00 0.10 0.00 100 1014.6
20260902074517 73 355 0.0 0.0 0.00 0.10 0.00 100 1014.5
20260902073011 74 355 0.0 0.0 0.00 0.10 0.00 100 1014.5
20260902071509 74 355 0.0 0.0 0.00 0.10 0.00 100 1014.4
20260902070008 74 355 0.0 0.0 0.00 0.10 0.00 100 1014.3
20260902064507 74 260 0.0 0.0 0.00 0.10 0.00 100 1014.3
20260902063006 74 256 0.0 1.0 0.00 0.10 0.00 100 1014.3
20260902061509 75 256 0.0 0.0 0.00 0.10 0.00 100 1014.4
20260902060001 75 256 0.0 0.0 0.00 0.10 0.00 100 1014.4
20260902054600 76 256 0.0 1.0 0.00 0.10 0.00 100 1014.5
20260902053104 76 248 0.0 1.0 0.00 0.10 0.00 100 1014.5
20260902051558 76 248 0.0 2.0 0.00 0.10 0.00 100 1014.5
20260902050057 76 285 0.0 1.0 0.00 0.10 0.00 100 1014.5
20260902044557 76 271 0.0 1.0 0.00 0.10 0.00 100 1014.4
20260902043055 76 271 0.0 3.0 0.00 0.10 0.00 100 1014.4
20260902041606 76 309 0.0 0.0 0.00 0.10 0.00 100 1014.3
20260902040051 77 244 0.0 0.0 0.00 0.10 0.00 100 1014.3
20260902034551 77 56 0.0 1.0 0.00 0.10 0.10 100 1014.3
20260902033051 77 263 0.0 2.0 0.00 0.10 0.10 100 1014.3
20260902031551 77 94 0.0 1.0 0.00 0.10 0.10 100 1014.3
20260902030049 77 94 0.0 2.0 0.00 0.10 0.10 100 1014.2
20260902024558 77 63 0.0 1.0 0.00 0.10 0.10 100 1014.2
20260902023100 77 63 0.0 1.0 0.00 0.10 0.10 100 1014.2
20260902021555 76 63 0.0 0.0 0.00 0.10 0.10 100 1014.2
20260902020049 76 63 0.0 0.0 0.00 0.10 0.10 100 1014.3
20260902014647 77 63 0.0 1.0 0.00 0.10 0.10 100 1014.2
20260902013046 77 64 0.0 0.0 0.00 0.10 0.10 100 1014.3
20260902011544 78 64 0.0 0.0 0.00 0.10 0.10 100 1014.2
20260902010045 79 63 0.0 0.0 0.00 0.10 0.10 100 1014.0
20260902004548 80 63 0.0 0.0 0.00 0.10 0.10 100 1013.9
20260902003042 80 64 0.0 0.0 0.00 0.10 0.10 100 1014.0